Flag for U.S.A. Weather past 2 weeks in Durango, Colorado, U.S.A.

Now
63 °F

Mostly cloudy.


Feels Like: 63 °F
Forecast: 59 / 82 °F
Wind: No wind

Location: Durango-La Plata County Airport

Current Time: Jul 2, 2015 at 4:41:01 AM

Latest Report: Jul 2, 2015 at 3:53 AM


Visibility: 10 mi

Pressure: 29.93 "Hg

Humidity: 73%

Dew point: 54 °F

Location of DurangoLocation

Historic Weather in Durango — Graph

°F

Durango temperature yesterday

Maximum temperature yesterday: 92 °F (at 3:53 PM)
Minimum temperature yesterday: 64 °F (at 5:53 AM)
Average temperature yesterday: 75 °F

Past Weeks' High & Low Weather Summary

 TemperatureHumidityPressure
High92 °F (Jun 21, 3:53 PM)87% (Jun 30, 1:53 AM)30.29 "Hg (Jun 30, 1:53 AM)
Low44 °F (Jun 18, 5:53 AM)8% (Jun 21, 3:53 PM)29.79 "Hg (Jul 1, 3:53 PM)
Average71 °F40%29.98 "Hg
* Reported Jun 17 4:53 AM — Jul 2 2:53 AM, Durango, Weather by CustomWeather, © 2015

Note: Actual official high and low records may vary slightly from our data, if they occured in-between our weather recording intervals... More about our weather records

Advertising

Durango weather history for previous 24 hours

 ConditionsComfort  
Time TempWeatherWind HumidityBarometerVisibility
2:53 AM
Thu, Jul 2
64 °FOvercast.12 mph68%29.95 "Hg10 mi
1:53 AM64 °FPassing clouds.No wind68%29.93 "Hg10 mi
12:53 AM65 °FOvercast.7 mph68%29.94 "Hg10 mi
11:53 PM
Wed, Jul 1
67 °FPassing clouds.No wind53%29.92 "Hg10 mi
10:53 PM66 °FClear.No wind56%29.92 "Hg10 mi
9:53 PM70 °FClear.6 mph46%29.90 "Hg10 mi
8:53 PM73 °FSunny.18 mph37%29.88 "Hg10 mi
7:53 PM77 °FSunny.10 mph32%29.87 "Hg10 mi
6:53 PM80 °FOvercast.5 mph36%29.86 "Hg10 mi
5:53 PM83 °FSunny.13 mph33%29.82 "Hg10 mi
4:53 PM85 °FPassing clouds.14 mph31%29.82 "Hg10 mi
3:53 PM92 °FSunny.7 mph16%29.79 "Hg10 mi
2:53 PM89 °FSunny.6 mph20%29.82 "Hg10 mi
1:53 PM88 °FSunny.5 mph22%29.84 "Hg10 mi
12:53 PM85 °FSunny.5 mph26%29.90 "Hg10 mi
11:53 AM83 °FSunny.6 mph26%29.92 "Hg10 mi
10:53 AM80 °FSunny.3 mph30%29.92 "Hg10 mi
9:53 AM78 °FSunny.8 mph35%29.92 "Hg10 mi
8:53 AM72 °FSunny.3 mph49%29.95 "Hg10 mi
7:53 AM66 °FSunny.No wind63%29.96 "Hg10 mi
6:53 AM64 °FClear.6 mph65%29.95 "Hg10 mi
5:53 AM64 °FClear.6 mph63%29.94 "Hg10 mi
4:53 AM66 °FClear.6 mph56%29.90 "Hg10 mi
Weather by CustomWeather, © 2015

See weather overviewHow to use our weather pages